Regional Weather Roundup
Issued by NWS Tampa Bay Area, FL

Home | Current Version | Previous Version | Text Only | Print | Product List | Glossary On
Versions: 1 2 3 4 5 6 7 8 9 10 11 12 13 14 15 16 17 18 19 20 21 22 23 24 25 26 27 28 29 30 31 32 33 34 35 36 37 38 39 40 41 42 43 44 45 46 47 48 49 50
000
NZUS99 KTBW 161618
RWRTPA
FLORIDA REGIONAL WEATHER ROUNDUP
NATIONAL WEATHER SERVICE TAMPA BAY RUSKIN FL
1200 PM EDT TUE JUL 16 2019

NOTE: "FAIR" INDICATES FEW OR NO CLOUDS BELOW 12,000 FEET WITH NO
SIGNIFICANT WEATHER AND/OR OBSTRUCTIONS TO VISIBILITY.



STATION/POSITION



FLZ042-048>051-055-056-060-061-161700-
EXTRA STATIONS

CITY           SKY/WX    TMP DP  RH WIND       PRES   REMARKS
Everglades Cty NOT AVBL
CRYSTAL RIVER  FAIR      90  73  58 CALM      30.16F HX  98
SEBRING        FAIR      89  76  65 CALM      30.14F HX 101
EGLIN AFB      FAIR      91  71  52 S12       30.15R HX  97
CANAVERAL      MOSUNNY   89  53  29 S6        30.14F

$$
FLZ001>010-012>015-161700-
PANHANDLE FLORIDA

CITY           SKY/WX    TMP DP  RH WIND       PRES   REMARKS
PENSACOLA      PTSUNNY   89  78  70 S10       30.14S HX 103
PENSACOLA NAS  FAIR      87  78  74 S9        30.14S HX 100
MILTON NAS     FAIR      89  75  63 S9        30.15R HX  99
CRESTVIEW      FAIR      90  71  53 S12       30.16S HX  96
VALPARAISO     FAIR      88  76  67 S5        30.15R HX  98
MARY ESTHER    FAIR      88  77  69 CALM      30.14R HX 101
PANAMA CITY    PTSUNNY   89  74  60 S7        30.15R HX  98
TYNDALL AFB    FAIR      89  74  60 S7        30.14S HX  97
APALACHICOLA   FAIR      89  78  70 SE9       30.15R HX 103

STATION/POSITION


29.2N   88.2W
28.8N   86.0W
28.5N   84.5W

$$
FLZ011-016>039-161700-
NORTH FLORIDA

CITY           SKY/WX    TMP DP  RH WIND       PRES   REMARKS
MARIANNA       FAIR      87  78  74 VRB5      30.15S HX 100
TALLAHASSEE    FAIR      91  73  55 SW5       30.16R HX  99
PERRY          FAIR      93  73  52 NE6       30.16F HX 102
CROSS CITY     FAIR      90  76  62 W3        30.16S HX 102
GAINESVILLE    FAIR      90  74  59 S5        30.18S HX  99
MAYPORT NAS    PTSUNNY   91  72  53 W5        30.14R HX  98
JACKSONVILLE   PTSUNNY   92  73  53 W7        30.13S HX 100
JAX NAS        PTSUNNY   92  70  48 VRB5      30.15S HX  97
JAX CRAIG      FAIR      93  73  52 NW8       30.14S HX 102
ST AUGUSTINE   FAIR      88  75  65 VRB7      30.16S HX  97

STATION/POSITION


KEATON BEACH
31.4N   80.9W
ST AUGUSTINE

$$
FLZ040-043>046-052-053-057-058-063-161700-
CENTRAL FLORIDA

CITY           SKY/WX    TMP DP  RH WIND       PRES   REMARKS
OCALA          FAIR      89  74  60 NW3       30.17S HX  98
LEESBURG       FAIR      88  75  65 CALM      30.17S HX  97
SANFORD        FAIR      88  74  63 SW5       30.15S HX  96
ORLANDO EXEC   FAIR      89  73  59 W3        30.16S HX  97
ORLANDO INTL   FAIR      88  71  57 E5        30.15F HX  94
KISSIMMEE      FAIR      89  70  53 S5        30.16F HX  94
WINTER HAVEN   FAIR      92  73  53 VRB6      30.16F HX 100
LAKELAND       MOSUNNY   88  73  62 CALM      30.15F HX  96

$$
FLZ041-047-054-059-064-161700-
EAST CENTRAL FLORIDA

CITY           SKY/WX    TMP DP  RH WIND       PRES   REMARKS
DAYTONA BEACH  PTSUNNY   90  77  65 CALM      30.16S HX 103
JFK SPACE CTR  MOSUNNY   88  65  46 S3        30.14F HX  90
TITUSVILLE     MOSUNNY   91  73  55 E3        30.16R HX 100
PATRICK AFB    FAIR      87  81  82 E6        30.15S HX 105
MELBOURNE      FAIR      89  77  67 E8        30.14F HX 101
VERO BEACH     FAIR      89  75  63 E10       30.14F HX  99
FT PIERCE      FAIR      89  76  65 E9        30.14S HX 100

STATION/POSITION


28.9N   78.5W

$$
FLZ042-048>051-055-056-060-061-161700-
WEST CENTRAL FLORIDA

CITY           SKY/WX    TMP DP  RH WIND       PRES   REMARKS
BROOKSVILLE    FAIR      89  74  60 CALM      30.16F HX  98
TAMPA          FAIR      89  74  60 VRB3      30.14F HX  98
MACDILL AFB    FAIR      89  73  59 NE3       30.14S HX  97
ST PETERSBURG  FAIR      87  74  64 NE7       30.14S HX  95
ST PET-WHITTED FAIR      88  76  67 E3        30.12S HX  99
SARASOTA       FAIR      90  74  59 E9        30.11S HX  99

STATION/POSITION


CEDAR KEY
28.5N   84.5W
VENICE

$$
FLZ062-065-066-069-070-075>078-161700-
SOUTHWEST FLORIDA AND KEYS

CITY           SKY/WX    TMP DP  RH WIND       PRES   REMARKS
PUNTA GORDA    FAIR      90  73  57 E5        30.13S HX  98
FT MYERS       FAIR      90  74  59 E9        30.11S HX  99
SOUTHWEST INTL FAIR      90  74  59 VRB7      30.11F HX  99
NAPLES         FAIR      91  77  63 VRB7      30.11S HX 104
MARATHON       FAIR      92  75  57 E8        30.11S HX 103
KEY WEST NAS   FAIR      92  77  61 SE13      30.11R HX 105
KEY WEST INTL  FAIR      88  76  67 SE13      30.11R HX  99

STATION/POSITION


VENICE
26.0N   85.6W
SAND KEY
SOMBRERO KEY
LONG KEY

$$
FLZ067-068-071>074-161700-
SOUTHEAST FLORIDA

CITY           SKY/WX    TMP DP  RH WIND       PRES   REMARKS
W PALM BEACH   FAIR      89  76  65 SE12G18   30.14S HX 100
POMPANO BEACH  FAIR      90  73  57 SE9       30.13F HX  98
FT LAUDER-EXEC FAIR      91  73  55 E12       30.13S HX  99
FT LAUDERDALE  PTSUNNY   89  73  59 SE9       30.13S HX  97
PEMBROKE PINES FAIR      92  73  53 E9G16     30.14S HX 100
OPA LOCKA      FAIR      91  73  55 SE12      30.13F HX  99
MIAMI          FAIR      91  72  53 E12       30.13F HX  98
WEST KENDALL   FAIR      89  75  63 SE10      30.12F HX  99
HOMESTEAD      FAIR      88  77  68 E10       30.12S HX 100

STATION/POSITION


LAKE WORTH
FOWEY ROCKS
SETTLEMENT POINT

$$



USA.gov is the U.S. government's official web portal to all federal, state and local government web resources and services.